,,PA_Meas_PMT16A,,PR_Meas_QMR101_102,,RH_Meas_QMH101,,SR_Meas_QMS101,,TA_Meas_QMH101,,GenWind,,GenWind,
time,status,PA,status,PR,status,RH,status,SR,status,TA,status,DirAvg,status,SpdAvg,
2010-02-09, 00:00:04,VALID,917.944,VALID,0,VALID,91.9384,VALID,0.107441,VALID,21.455,VALID,130,VALID,0.928906,
2010-02-09, 00:01:04,VALID,917.924,VALID,0,VALID,91.8927,VALID,0,VALID,21.4567,VALID,130,VALID,0.991797,
2010-02-09, 00:02:04,VALID,917.883,VALID,0,VALID,91.946,VALID,0,VALID,21.4583,VALID,130,VALID,1.00195,
2010-02-09, 00:03:04,VALID,917.843,VALID,0,VALID,91.7859,VALID,0,VALID,21.4583,VALID,130,VALID,1.31758,
2010-02-09, 00:04:04,VALID,917.802,VALID,0,VALID,91.6182,VALID,0,VALID,21.4583,VALID,136,VALID,1.56172,
2010-02-09, 00:05:04,VALID,917.784,VALID,0,VALID,91.5877,VALID,0.107441,VALID,21.4388,VALID,137,VALID,1.17695,
2010-02-09, 00:06:04,VALID,917.723,VALID,0,VALID,91.7097,VALID,0,VALID,21.3981,VALID,137,VALID,1.3625,
2010-02-09, 00:07:04,VALID,917.727,VALID,0,VALID,91.7402,VALID,0,VALID,21.3981,VALID,116,VALID,2.3,
2010-02-09, 00:08:04,VALID,917.736,VALID,0,VALID,91.6106,VALID,0,VALID,21.4177,VALID,126,VALID,1.84336,
2010-02-09, 00:09:04,VALID,917.769,VALID,0,VALID,91.5801,VALID,0,VALID,21.4388,VALID,117,VALID,1.17813,
2010-02-09, 00:10:04,VALID,917.755,VALID,0,VALID,91.2447,VALID,0,VALID,21.4973,VALID,149,VALID,1.16953,
2010-02-09, 00:11:04,VALID,917.773,VALID,0,VALID,91.1684,VALID,0,VALID,21.5168,VALID,130,VALID,1.53242,
2010-02-09, 00:12:04,VALID,917.764,VALID,0,VALID,91.0236,VALID,0,VALID,21.5168,VALID,126,VALID,1.6168,
2010-02-09, 00:13:04,VALID,917.709,VALID,0,VALID,91.016,VALID,0,VALID,21.5152,VALID,116,VALID,1.09375,
2010-02-09, 00:14:04,VALID,917.685,VALID,0,VALID,91.1151,VALID,0,VALID,21.5168,VALID,131,VALID,1.09453,
2010-02-09, 00:15:04,VALID,917.665,VALID,0,VALID,91.1303,VALID,0,VALID,21.5152,VALID,124,VALID,1.42656,
2010-02-09, 00:16:04,VALID,917.628,VALID,0,VALID,91.1456,VALID,0,VALID,21.5168,VALID,156,VALID,1.12852,
2010-02-09, 00:17:04,VALID,917.638,VALID,0,VALID,91.1989,VALID,0,VALID,21.5168,VALID,112,VALID,1.68672,
2010-02-09, 00:18:04,VALID,917.653,VALID,0,VALID,91.1989,VALID,0,VALID,21.5168,VALID,126,VALID,3.03711,
2010-02-09, 00:19:04,VALID,917.685,VALID,0,VALID,91.1913,VALID,0.107441,VALID,21.4957,VALID,114,VALID,1.16367,
2010-02-09, 00:20:04,VALID,917.667,VALID,0,VALID,91.3209,VALID,0,VALID,21.4567,VALID,112,VALID,1.72031,
2010-02-09, 00:21:04,VALID,917.679,VALID,0,VALID,91.3514,VALID,0,VALID,21.4778,VALID,112,VALID,0.800391,
2010-02-09, 00:22:04,VALID,917.693,VALID,0,VALID,91.4276,VALID,0,VALID,21.4583,VALID,112,VALID,1.5082,
2010-02-09, 00:23:04,VALID,917.677,VALID,0,VALID,91.4276,VALID,0.107441,VALID,21.4778,VALID,128,VALID,1.34531,
2010-02-09, 00:24:04,VALID,917.685,VALID,0,VALID,91.3743,VALID,0,VALID,21.4567,VALID,162,VALID,1.28125,
2010-02-09, 00:25:04,VALID,917.69,VALID,0,VALID,91.3514,VALID,0,VALID,21.4778,VALID,162,VALID,1.34453,
2010-02-09, 00:26:04,VALID,917.742,VALID,0,VALID,91.3438,VALID,0,VALID,21.4567,VALID,133,VALID,0.646094,
2010-02-09, 00:27:04,VALID,917.729,VALID,0,VALID,91.359,VALID,0,VALID,21.4567,VALID,134,VALID,1.10234,
2010-02-09, 00:28:04,VALID,917.715,VALID,0,VALID,91.3819,VALID,0,VALID,21.4567,VALID,110,VALID,1.04375,
2010-02-09, 00:29:04,VALID,917.678,VALID,0,VALID,91.4429,VALID,0,VALID,21.4372,VALID,110,VALID,0.977734,
2010-02-09, 00:30:04,VALID,917.616,VALID,0,VALID,91.4581,VALID,0,VALID,21.4388,VALID,110,VALID,0.873047,
2010-02-09, 00:31:04,VALID,917.621,VALID,0,VALID,91.4352,VALID,0,VALID,21.4583,VALID,138,VALID,0.711328,
2010-02-09, 00:32:04,VALID,917.604,VALID,0,VALID,91.4581,VALID,0,VALID,21.4583,VALID,138,VALID,0.187109,
2010-02-09, 00:33:04,VALID,917.62,VALID,0,VALID,91.4734,VALID,0,VALID,21.4388,VALID,138,VALID,0.0753906,
2010-02-09, 00:34:04,VALID,917.606,VALID,0,VALID,91.4429,VALID,0,VALID,21.4388,VALID,138,VALID,0.305859,
2010-02-09, 00:35:04,VALID,917.606,VALID,0,VALID,91.3895,VALID,0,VALID,21.4193,VALID,138,VALID,0.376563,
2010-02-09, 00:36:04,VALID,917.636,VALID,0,VALID,91.481,VALID,0,VALID,21.3981,VALID,138,VALID,0.55625,
2010-02-09, 00:37:04,VALID,917.642,VALID,0,VALID,91.5191,VALID,0,VALID,21.3786,VALID,138,VALID,0.617578,
2010-02-09, 00:38:04,VALID,917.598,VALID,0,VALID,91.5191,VALID,0,VALID,21.3803,VALID,166,VALID,1.30859,
2010-02-09, 00:39:04,VALID,917.621,VALID,0,VALID,91.4581,VALID,0,VALID,21.3786,VALID,180,VALID,0.573828,
2010-02-09, 00:40:04,VALID,917.541,VALID,0,VALID,91.6258,VALID,0,VALID,21.3803,VALID,180,VALID,0.865625,
2010-02-09, 00:41:04,VALID,917.501,VALID,0,VALID,91.7097,VALID,0,VALID,21.3412,VALID,180,VALID,0.502734,
2010-02-09, 00:42:04,VALID,917.454,VALID,0,VALID,91.7326,VALID,0,VALID,21.3201,VALID,180,VALID,0.507813,
2010-02-09, 00:43:04,VALID,917.416,VALID,0,VALID,91.7326,VALID,0,VALID,21.3412,VALID,179,VALID,0.807422,
2010-02-09, 00:44:04,VALID,917.37,VALID,0,VALID,91.7326,VALID,0,VALID,21.3217,VALID,157,VALID,1.30898,
2010-02-09, 00:45:04,VALID,917.351,VALID,0,VALID,91.8698,VALID,0,VALID,21.3022,VALID,159,VALID,1.2375,
2010-02-09, 00:46:04,VALID,917.329,VALID,0,VALID,92.0451,VALID,0,VALID,21.2632,VALID,135,VALID,1.45273,
2010-02-09, 00:47:04,VALID,917.342,VALID,0,VALID,92.0146,VALID,0,VALID,21.2632,VALID,132,VALID,2.19336,
2010-02-09, 00:48:04,VALID,917.332,VALID,0,VALID,91.9613,VALID,0,VALID,21.2632,VALID,131,VALID,1.37227,
2010-02-09, 00:49:04,VALID,917.324,VALID,0,VALID,91.7631,VALID,0,VALID,21.3022,VALID,139,VALID,1.52852,
2010-02-09, 00:50:04,VALID,917.346,VALID,0,VALID,91.6563,VALID,0,VALID,21.3217,VALID,146,VALID,0.5125,
2010-02-09, 00:51:04,VALID,917.31,VALID,0,VALID,91.5877,VALID,0,VALID,21.3412,VALID,130,VALID,1.54414,
2010-02-09, 00:52:04,VALID,917.297,VALID,0,VALID,91.6106,VALID,0,VALID,21.3412,VALID,137,VALID,1.56445,
2010-02-09, 00:53:04,VALID,917.311,VALID,0,VALID,91.5725,VALID,0,VALID,21.3217,VALID,174,VALID,1.01289,
2010-02-09, 00:54:04,VALID,917.251,VALID,0,VALID,91.5801,VALID,0,VALID,21.3412,VALID,145,VALID,1.62305,
2010-02-09, 00:55:04,VALID,917.228,VALID,0,VALID,91.4505,VALID,0,VALID,21.3412,VALID,136,VALID,1.75742,
2010-02-09, 00:56:04,VALID,917.226,VALID,0,VALID,91.4657,VALID,0,VALID,21.3412,VALID,161,VALID,1.10273,
2010-02-09, 00:57:04,VALID,917.198,VALID,0,VALID,91.4124,VALID,0,VALID,21.3608,VALID,148,VALID,1.65391,
2010-02-09, 00:58:04,VALID,917.224,VALID,0,VALID,91.3666,VALID,0,VALID,21.3412,VALID,199,VALID,1.01172,
2010-02-09, 00:59:04,VALID,917.232,VALID,0,VALID,91.4048,VALID,0,VALID,21.3217,VALID,187,VALID,2.04297,
2010-02-09, 01:00:04,VALID,917.262,VALID,0,VALID,91.4734,VALID,0,VALID,21.3022,VALID,168,VALID,0.71875,
2010-02-09, 01:01:04,VALID,917.232,VALID,0,VALID,91.542,VALID,0,VALID,21.3217,VALID,197,VALID,1.3375,
2010-02-09, 01:02:04,VALID,917.279,VALID,0,VALID,91.6792,VALID,0,VALID,21.2827,VALID,205,VALID,1.12422,
2010-02-09, 01:03:04,VALID,917.256,VALID,0,VALID,91.7783,VALID,0,VALID,21.2632,VALID,175,VALID,1.24922,
2010-02-09, 01:04:04,VALID,917.281,VALID,0,VALID,91.9003,VALID,0,VALID,21.2031,VALID,184,VALID,1.625,
2010-02-09, 01:05:04,VALID,917.282,VALID,0,VALID,92.1137,VALID,0,VALID,21.1852,VALID,187,VALID,1.54219,
2010-02-09, 01:06:04,VALID,917.27,VALID,0,VALID,92.2814,VALID,0,VALID,21.1852,VALID,175,VALID,0.767969,
2010-02-09, 01:07:04,VALID,917.247,VALID,0,VALID,92.2357,VALID,0,VALID,21.1461,VALID,148,VALID,1.20625,
2010-02-09, 01:08:04,VALID,917.24,VALID,0,VALID,92.1976,VALID,0,VALID,21.1657,VALID,170,VALID,1.90313,
2010-02-09, 01:09:04,VALID,917.2,VALID,0,VALID,92.1823,VALID,0,VALID,21.1461,VALID,179,VALID,1.35352,
2010-02-09, 01:10:04,VALID,917.26,VALID,0,VALID,92.1366,VALID,0,VALID,21.1657,VALID,169,VALID,1.63867,
2010-02-09, 01:11:04,VALID,917.25,VALID,0,VALID,91.9994,VALID,0,VALID,21.1445,VALID,168,VALID,1.7457,
2010-02-09, 01:12:04,VALID,917.315,VALID,0,VALID,91.9384,VALID,0,VALID,21.1657,VALID,110,VALID,0.983203,
2010-02-09, 01:13:04,VALID,917.282,VALID,0,VALID,91.7783,VALID,0,VALID,21.1852,VALID,153,VALID,1.46133,
2010-02-09, 01:14:04,VALID,917.281,VALID,0,VALID,91.7173,VALID,0,VALID,21.2047,VALID,109,VALID,0.766797,
2010-02-09, 01:15:04,VALID,917.29,VALID,0,VALID,91.6335,VALID,0,VALID,21.2047,VALID,126,VALID,0.937891,
2010-02-09, 01:16:04,VALID,917.287,VALID,0,VALID,91.542,VALID,0,VALID,21.2047,VALID,136,VALID,1.24844,
2010-02-09, 01:17:04,VALID,917.218,VALID,0,VALID,91.5496,VALID,0,VALID,21.2242,VALID,135,VALID,1.54102,
2010-02-09, 01:18:04,VALID,917.207,VALID,0,VALID,91.5115,VALID,0,VALID,21.2047,VALID,129,VALID,1.56953,
2010-02-09, 01:19:04,VALID,917.178,VALID,0,VALID,91.5191,VALID,0,VALID,21.2242,VALID,126,VALID,1.88672,
2010-02-09, 01:20:04,VALID,917.116,VALID,0,VALID,91.5877,VALID,0,VALID,21.1852,VALID,129,VALID,1.74961,
2010-02-09, 01:21:04,VALID,917.083,VALID,0,VALID,91.4962,VALID,0,VALID,21.1852,VALID,123,VALID,2.0457,
2010-02-09, 01:22:04,VALID,917.06,VALID,0,VALID,91.2752,VALID,0,VALID,21.2437,VALID,125,VALID,2.27031,
2010-02-09, 01:23:04,VALID,917.032,VALID,0,VALID,91.2294,VALID,0,VALID,21.2437,VALID,123,VALID,1.84219,
2010-02-09, 01:24:04,VALID,917.06,VALID,0,VALID,91.0846,VALID,0,VALID,21.2437,VALID,143,VALID,2.01992,
2010-02-09, 01:25:04,VALID,917.062,VALID,0,VALID,91.016,VALID,0,VALID,21.2437,VALID,147,VALID,1.90078,
2010-02-09, 01:26:04,VALID,917.06,VALID,0,VALID,90.8711,VALID,0,VALID,21.2632,VALID,131,VALID,1.29023,
2010-02-09, 01:27:04,VALID,917.084,VALID,0,VALID,90.7568,VALID,0,VALID,21.2632,VALID,130,VALID,1.04492,
2010-02-09, 01:28:04,VALID,917.06,VALID,0,VALID,90.5281,VALID,0,VALID,21.3022,VALID,112,VALID,0.960938,
2010-02-09, 01:29:04,VALID,917.046,VALID,0,VALID,90.2765,VALID,0,VALID,21.3217,VALID,154,VALID,1.58203,
2010-02-09, 01:30:04,VALID,917.01,VALID,0,VALID,90.2003,VALID,0,VALID,21.3624,VALID,149,VALID,1.86563,
2010-02-09, 01:31:04,VALID,916.981,VALID,0,VALID,90.2841,VALID,0,VALID,21.3412,VALID,114,VALID,1.51719,
2010-02-09, 01:32:04,VALID,916.959,VALID,0,VALID,90.3527,VALID,0,VALID,21.3412,VALID,148,VALID,1.55195,
2010-02-09, 01:33:04,VALID,916.946,VALID,0,VALID,90.4823,VALID,0,VALID,21.3022,VALID,126,VALID,1.81875,
2010-02-09, 01:34:04,VALID,916.914,VALID,0,VALID,90.5967,VALID,0,VALID,21.2632,VALID,145,VALID,1.26992,
2010-02-09, 01:35:04,VALID,916.927,VALID,0,VALID,90.7263,VALID,0,VALID,21.2437,VALID,118,VALID,1.26992,
2010-02-09, 01:36:04,VALID,916.966,VALID,0,VALID,90.7949,VALID,0,VALID,21.2242,VALID,119,VALID,1.76875,
2010-02-09, 01:37:04,VALID,916.964,VALID,0,VALID,90.6577,VALID,0,VALID,21.2437,VALID,144,VALID,2.2293,
2010-02-09, 01:38:04,VALID,916.933,VALID,0,VALID,90.4899,VALID,0,VALID,21.2616,VALID,138,VALID,2.16367,
2010-02-09, 01:39:04,VALID,916.914,VALID,0,VALID,90.4213,VALID,0,VALID,21.2811,VALID,106,VALID,1.24453,
2010-02-09, 01:40:04,VALID,916.928,VALID,0,VALID,90.4366,VALID,0.107441,VALID,21.2811,VALID,114,VALID,1.27266,
2010-02-09, 01:41:04,VALID,916.914,VALID,0,VALID,90.5052,VALID,0,VALID,21.2827,VALID,130,VALID,1.47383,
2010-02-09, 01:42:04,VALID,916.895,VALID,0,VALID,90.5433,VALID,0,VALID,21.2421,VALID,120,VALID,1.46484,
2010-02-09, 01:43:04,VALID,916.888,VALID,0,VALID,90.5967,VALID,0,VALID,21.2437,VALID,112,VALID,1.575,
2010-02-09, 01:44:04,VALID,916.87,VALID,0,VALID,90.772,VALID,0,VALID,21.2242,VALID,114,VALID,1.45039,
2010-02-09, 01:45:04,VALID,916.842,VALID,0,VALID,90.9321,VALID,0,VALID,21.2047,VALID,133,VALID,1.79023,
2010-02-09, 01:46:04,VALID,916.851,VALID,0,VALID,90.9931,VALID,0,VALID,21.1852,VALID,137,VALID,1.51484,
2010-02-09, 01:47:04,VALID,916.842,VALID,0,VALID,91.0846,VALID,0,VALID,21.1445,VALID,128,VALID,0.903906,
2010-02-09, 01:48:04,VALID,916.847,VALID,0,VALID,91.0236,VALID,0,VALID,21.1852,VALID,141,VALID,2.20937,
2010-02-09, 01:49:04,VALID,916.876,VALID,0,VALID,90.9702,VALID,0,VALID,21.1836,VALID,149,VALID,2.19258,
2010-02-09, 01:50:04,VALID,916.852,VALID,0,VALID,90.8559,VALID,0,VALID,21.2258,VALID,139,VALID,1.43477,
2010-02-09, 01:51:04,VALID,916.877,VALID,0,VALID,90.8483,VALID,0,VALID,21.2047,VALID,136,VALID,1.90781,
2010-02-09, 01:52:04,VALID,916.86,VALID,0,VALID,90.772,VALID,0,VALID,21.2437,VALID,140,VALID,2.00781,
2010-02-09, 01:53:04,VALID,916.831,VALID,0,VALID,90.5662,VALID,0,VALID,21.2632,VALID,134,VALID,1.72148,
2010-02-09, 01:54:04,VALID,916.836,VALID,0,VALID,90.4442,VALID,0,VALID,21.2827,VALID,136,VALID,1.96563,
2010-02-09, 01:55:04,VALID,916.762,VALID,0,VALID,90.3985,VALID,0,VALID,21.2827,VALID,122,VALID,1.59023,
2010-02-09, 01:56:04,VALID,916.715,VALID,0,VALID,90.2994,VALID,0,VALID,21.2632,VALID,150,VALID,1.66641,
2010-02-09, 01:57:04,VALID,916.684,VALID,0,VALID,90.1774,VALID,0,VALID,21.2827,VALID,135,VALID,1.59023,
2010-02-09, 01:58:04,VALID,916.706,VALID,0,VALID,90.246,VALID,0,VALID,21.2827,VALID,129,VALID,1.85,
2010-02-09, 01:59:04,VALID,916.71,VALID,0,VALID,90.2231,VALID,0,VALID,21.2827,VALID,125,VALID,1.6332,
2010-02-09, 02:00:04,VALID,916.707,VALID,0,VALID,90.2536,VALID,0,VALID,21.2827,VALID,113,VALID,1.78281,
2010-02-09, 02:01:04,VALID,916.705,VALID,0,VALID,90.246,VALID,0,VALID,21.2616,VALID,133,VALID,1.44414,
2010-02-09, 02:02:04,VALID,916.751,VALID,0,VALID,90.1698,VALID,0,VALID,21.2811,VALID,134,VALID,1.82813,
2010-02-09, 02:03:04,VALID,916.721,VALID,0,VALID,90.2079,VALID,0,VALID,21.2827,VALID,136,VALID,1.70664,
2010-02-09, 02:04:04,VALID,916.749,VALID,0,VALID,90.2841,VALID,0,VALID,21.2632,VALID,142,VALID,1.77422,
2010-02-09, 02:05:04,VALID,916.736,VALID,0,VALID,90.3299,VALID,0,VALID,21.2437,VALID,134,VALID,1.97031,
2010-02-09, 02:06:04,VALID,916.715,VALID,0,VALID,90.307,VALID,0,VALID,21.2437,VALID,137,VALID,2.24023,
2010-02-09, 02:07:04,VALID,916.684,VALID,0,VALID,90.3908,VALID,0,VALID,21.2242,VALID,126,VALID,1.67188,
2010-02-09, 02:08:04,VALID,916.67,VALID,0,VALID,90.3299,VALID,0,VALID,21.2437,VALID,133,VALID,1.67266,
2010-02-09, 02:09:04,VALID,916.615,VALID,0,VALID,90.2612,VALID,0,VALID,21.2437,VALID,119,VALID,2.14687,
2010-02-09, 02:10:04,VALID,916.581,VALID,0,VALID,90.3375,VALID,0,VALID,21.2242,VALID,125,VALID,1.98828,
2010-02-09, 02:11:04,VALID,916.503,VALID,0,VALID,90.1012,VALID,0,VALID,21.2632,VALID,131,VALID,2.51289,
2010-02-09, 02:12:04,VALID,916.495,VALID,0,VALID,90.2003,VALID,0,VALID,21.2632,VALID,131,VALID,1.34336,
2010-02-09, 02:13:04,VALID,916.474,VALID,0,VALID,90.307,VALID,0,VALID,21.2437,VALID,128,VALID,1.50547,
2010-02-09, 02:14:04,VALID,916.445,VALID,0,VALID,90.2231,VALID,0,VALID,21.2242,VALID,128,VALID,2.0293,
2010-02-09, 02:15:04,VALID,916.431,VALID,0,VALID,90.3604,VALID,0,VALID,21.2242,VALID,131,VALID,1.4793,
2010-02-09, 02:16:04,VALID,916.423,VALID,0,VALID,90.4899,VALID,0,VALID,21.2047,VALID,138,VALID,1.5,
2010-02-09, 02:17:04,VALID,916.438,VALID,0,VALID,90.5738,VALID,0,VALID,21.1852,VALID,114,VALID,1.77305,
2010-02-09, 02:18:04,VALID,916.485,VALID,0,VALID,90.7187,VALID,0,VALID,21.1657,VALID,139,VALID,1.81602,
2010-02-09, 02:19:04,VALID,916.508,VALID,0,VALID,90.7491,VALID,0,VALID,21.1461,VALID,140,VALID,1.88047,
2010-02-09, 02:20:04,VALID,916.506,VALID,0,VALID,90.7339,VALID,0,VALID,21.1461,VALID,140,VALID,1.44609,
2010-02-09, 02:21:04,VALID,916.529,VALID,0,VALID,90.7568,VALID,0,VALID,21.1461,VALID,132,VALID,1.45078,
2010-02-09, 02:22:04,VALID,916.535,VALID,0,VALID,90.8635,VALID,0,VALID,21.1266,VALID,132,VALID,1.29609,
2010-02-09, 02:23:04,VALID,916.466,VALID,0,VALID,90.9702,VALID,0,VALID,21.1071,VALID,118,VALID,1.3168,
2010-02-09, 02:24:04,VALID,916.426,VALID,0,VALID,90.8559,VALID,0,VALID,21.1266,VALID,130,VALID,2.05742,
2010-02-09, 02:25:04,VALID,916.426,VALID,0,VALID,90.8254,VALID,0,VALID,21.1266,VALID,136,VALID,1.33633,
2010-02-09, 02:26:04,VALID,916.396,VALID,0,VALID,90.5814,VALID,0,VALID,21.1657,VALID,130,VALID,2.38281,
2010-02-09, 02:27:04,VALID,916.35,VALID,0,VALID,90.5357,VALID,0,VALID,21.1445,VALID,127,VALID,1.49492,
2010-02-09, 02:28:04,VALID,916.386,VALID,0,VALID,90.5814,VALID,0,VALID,21.1673,VALID,131,VALID,2.04141,
2010-02-09, 02:29:04,VALID,916.433,VALID,0,VALID,90.6119,VALID,0,VALID,21.1461,VALID,118,VALID,1.93359,
2010-02-09, 02:30:04,VALID,916.414,VALID,0,VALID,90.5433,VALID,0,VALID,21.1461,VALID,137,VALID,1.70625,
2010-02-09, 02:31:04,VALID,916.439,VALID,0,VALID,90.5967,VALID,0,VALID,21.1445,VALID,136,VALID,1.22578,
2010-02-09, 02:32:04,VALID,916.473,VALID,0,VALID,90.6119,VALID,0,VALID,21.164,VALID,129,VALID,1.88047,
2010-02-09, 02:33:04,VALID,916.461,VALID,0,VALID,90.5586,VALID,0.107441,VALID,21.2047,VALID,131,VALID,1.69219,
2010-02-09, 02:34:04,VALID,916.482,VALID,0,VALID,90.6043,VALID,0,VALID,21.1836,VALID,115,VALID,1.71445,
2010-02-09, 02:35:04,VALID,916.47,VALID,0,VALID,90.7568,VALID,0,VALID,21.164,VALID,110,VALID,1.70859,
2010-02-09, 02:36:04,VALID,916.433,VALID,0,VALID,90.8864,VALID,0.107441,VALID,21.1445,VALID,90,VALID,1.46563,
2010-02-09, 02:37:04,VALID,916.444,VALID,0,VALID,91.0617,VALID,0.107441,VALID,21.125,VALID,97,VALID,1.85391,
2010-02-09, 02:38:04,VALID,916.414,VALID,0,VALID,91.1456,VALID,0,VALID,21.086,VALID,95,VALID,1.63008,
2010-02-09, 02:39:04,VALID,916.381,VALID,0,VALID,91.1456,VALID,0.107441,VALID,21.1055,VALID,116,VALID,2.2918,
2010-02-09, 02:40:04,VALID,916.403,VALID,0,VALID,91.1532,VALID,0,VALID,21.086,VALID,100,VALID,1.65937,
2010-02-09, 02:41:04,VALID,916.424,VALID,0,VALID,91.1837,VALID,0.107441,VALID,21.086,VALID,91,VALID,1.38594,
2010-02-09, 02:42:04,VALID,916.446,VALID,0,VALID,91.0922,VALID,0,VALID,21.1055,VALID,93,VALID,0.709766,
2010-02-09, 02:43:04,VALID,916.498,VALID,0,VALID,91.1761,VALID,0.107441,VALID,21.086,VALID,121,VALID,1.80195,
2010-02-09, 02:44:04,VALID,916.505,VALID,0,VALID,91.2675,VALID,0,VALID,21.0665,VALID,126,VALID,1.63711,
2010-02-09, 02:45:04,VALID,916.514,VALID,0,VALID,91.2904,VALID,0,VALID,21.0665,VALID,152,VALID,1.29023,
2010-02-09, 02:46:04,VALID,916.489,VALID,0,VALID,91.3438,VALID,0,VALID,21.0681,VALID,144,VALID,1.92188,
2010-02-09, 02:47:04,VALID,916.464,VALID,0,VALID,91.3361,VALID,0,VALID,21.0681,VALID,126,VALID,1.05039,
2010-02-09, 02:48:04,VALID,916.454,VALID,0,VALID,91.3133,VALID,0,VALID,21.0681,VALID,131,VALID,1.84687,
2010-02-09, 02:49:04,VALID,916.437,VALID,0,VALID,91.3209,VALID,0,VALID,21.0275,VALID,123,VALID,1.87227,
2010-02-09, 02:50:04,VALID,916.411,VALID,0,VALID,91.1532,VALID,0,VALID,21.0681,VALID,116,VALID,2.04531,
2010-02-09, 02:51:04,VALID,916.421,VALID,0,VALID,91.237,VALID,0,VALID,21.0486,VALID,107,VALID,1.20313,
2010-02-09, 02:52:04,VALID,916.41,VALID,0,VALID,91.3666,VALID,0,VALID,21.0486,VALID,107,VALID,1.50664,
2010-02-09, 02:53:04,VALID,916.43,VALID,0,VALID,91.481,VALID,0,VALID,21.0096,VALID,99,VALID,1.39922,
2010-02-09, 02:54:04,VALID,916.445,VALID,0,VALID,91.6335,VALID,0,VALID,20.9901,VALID,120,VALID,1.49141,
2010-02-09, 02:55:04,VALID,916.458,VALID,0,VALID,91.7478,VALID,0,VALID,20.9706,VALID,116,VALID,1.19531,
2010-02-09, 02:56:04,VALID,916.479,VALID,0,VALID,91.7097,VALID,0,VALID,20.9706,VALID,111,VALID,1.62891,
2010-02-09, 02:57:04,VALID,916.487,VALID,0,VALID,91.4962,VALID,0,VALID,21.0096,VALID,107,VALID,1.86289,
2010-02-09, 02:58:04,VALID,916.499,VALID,0,VALID,91.3361,VALID,0,VALID,21.0291,VALID,106,VALID,1.63047,
2010-02-09, 02:59:04,VALID,916.457,VALID,0,VALID,91.2294,VALID,0,VALID,21.0486,VALID,107,VALID,1.49141,
2010-02-09, 03:00:04,VALID,916.496,VALID,0,VALID,91.2828,VALID,0,VALID,21.0697,VALID,96,VALID,1.45352,
2010-02-09, 03:01:04,VALID,916.447,VALID,0,VALID,91.359,VALID,0,VALID,21.0291,VALID,123,VALID,1.64766,
2010-02-09, 03:02:04,VALID,916.463,VALID,0,VALID,91.359,VALID,0,VALID,21.0291,VALID,120,VALID,1.65508,
2010-02-09, 03:03:04,VALID,916.42,VALID,0,VALID,91.3285,VALID,0,VALID,21.0697,VALID,127,VALID,1.93359,
2010-02-09, 03:04:04,VALID,916.445,VALID,0,VALID,91.4352,VALID,0,VALID,21.0307,VALID,130,VALID,1.36211,
2010-02-09, 03:05:04,VALID,916.463,VALID,0,VALID,91.542,VALID,0,VALID,21.0307,VALID,130,VALID,1.37695,
2010-02-09, 03:06:04,VALID,916.453,VALID,0,VALID,91.6258,VALID,0,VALID,21.0112,VALID,130,VALID,1.63125,
2010-02-09, 03:07:04,VALID,916.456,VALID,0,VALID,91.5801,VALID,0,VALID,21.0096,VALID,130,VALID,1.52539,
2010-02-09, 03:08:04,VALID,916.459,VALID,0,VALID,91.5039,VALID,0,VALID,21.0096,VALID,131,VALID,1.26211,
2010-02-09, 03:09:04,VALID,916.452,VALID,0,VALID,91.4505,VALID,0,VALID,21.0291,VALID,150,VALID,1.20078,
2010-02-09, 03:10:04,VALID,916.484,VALID,0,VALID,91.3438,VALID,0,VALID,21.0486,VALID,139,VALID,1.81055,
2010-02-09, 03:11:04,VALID,916.431,VALID,0,VALID,91.2447,VALID,0,VALID,21.0876,VALID,136,VALID,1.6957,
2010-02-09, 03:12:04,VALID,916.466,VALID,0,VALID,91.0846,VALID,0,VALID,21.1071,VALID,126,VALID,1.97148,
2010-02-09, 03:13:04,VALID,916.471,VALID,0,VALID,91.0083,VALID,0,VALID,21.1055,VALID,133,VALID,1.70117,
2010-02-09, 03:14:04,VALID,916.442,VALID,0,VALID,90.7796,VALID,0,VALID,21.1657,VALID,117,VALID,2.15977,
2010-02-09, 03:15:04,VALID,916.439,VALID,0,VALID,90.3146,VALID,0,VALID,21.2437,VALID,133,VALID,3.11719,
2010-02-09, 03:16:04,VALID,916.439,VALID,0,VALID,90.2079,VALID,0,VALID,21.3022,VALID,121,VALID,1.31914,
2010-02-09, 03:17:04,VALID,916.437,VALID,0,VALID,90.2155,VALID,0,VALID,21.3022,VALID,136,VALID,1.73164,
2010-02-09, 03:18:04,VALID,916.455,VALID,0,VALID,90.368,VALID,0,VALID,21.3038,VALID,130,VALID,1.31602,
2010-02-09, 03:19:04,VALID,916.484,VALID,0,VALID,90.5281,VALID,0,VALID,21.2632,VALID,130,VALID,1.28594,
2010-02-09, 03:20:04,VALID,916.469,VALID,0,VALID,90.6424,VALID,0,VALID,21.2242,VALID,137,VALID,1.71484,
2010-02-09, 03:21:04,VALID,916.495,VALID,0,VALID,90.6805,VALID,0,VALID,21.2047,VALID,133,VALID,1.34258,
2010-02-09, 03:22:04,VALID,916.479,VALID,0,VALID,90.5586,VALID,0,VALID,21.2437,VALID,140,VALID,1.46836,
2010-02-09, 03:23:04,VALID,916.485,VALID,0,VALID,90.4747,VALID,0,VALID,21.2437,VALID,140,VALID,1.28398,
2010-02-09, 03:24:04,VALID,916.476,VALID,0,VALID,90.2231,VALID,0,VALID,21.3022,VALID,145,VALID,1.49336,
2010-02-09, 03:25:04,VALID,916.44,VALID,0,VALID,90.0021,VALID,0,VALID,21.3217,VALID,143,VALID,2.275,
2010-02-09, 03:26:04,VALID,916.421,VALID,0,VALID,89.8267,VALID,0,VALID,21.3412,VALID,138,VALID,2.16094,
2010-02-09, 03:27:04,VALID,916.41,VALID,0,VALID,89.781,VALID,0,VALID,21.3412,VALID,144,VALID,1.23984,
2010-02-09, 03:28:04,VALID,916.405,VALID,0,VALID,89.5904,VALID,0,VALID,21.3803,VALID,140,VALID,1.8875,
2010-02-09, 03:29:04,VALID,916.438,VALID,0,VALID,89.3922,VALID,0,VALID,21.3786,VALID,137,VALID,1.69961,
2010-02-09, 03:30:04,VALID,916.443,VALID,0,VALID,89.3083,VALID,0,VALID,21.4388,VALID,120,VALID,1.30234,
2010-02-09, 03:31:04,VALID,916.451,VALID,0,VALID,89.3007,VALID,0,VALID,21.4583,VALID,120,VALID,1.47461,
2010-02-09, 03:32:04,VALID,916.484,VALID,0,VALID,89.3769,VALID,0,VALID,21.4388,VALID,120,VALID,1.02188,
2010-02-09, 03:33:04,VALID,916.461,VALID,0,VALID,89.5294,VALID,0,VALID,21.4388,VALID,120,VALID,1.08945,
2010-02-09, 03:34:04,VALID,916.486,VALID,0,VALID,89.5142,VALID,0,VALID,21.3998,VALID,120,VALID,1.18711,
2010-02-09, 03:35:04,VALID,916.459,VALID,0,VALID,89.6514,VALID,0,VALID,21.3803,VALID,120,VALID,1.39219,
2010-02-09, 03:36:04,VALID,916.443,VALID,0,VALID,89.6971,VALID,0,VALID,21.3803,VALID,135,VALID,1.3125,
2010-02-09, 03:37:04,VALID,916.462,VALID,0,VALID,89.8191,VALID,0,VALID,21.3608,VALID,139,VALID,1.2793,
2010-02-09, 03:38:04,VALID,916.477,VALID,0,VALID,89.9944,VALID,0,VALID,21.3217,VALID,139,VALID,1.47461,
2010-02-09, 03:39:04,VALID,916.492,VALID,0,VALID,90.0021,VALID,0,VALID,21.3022,VALID,139,VALID,1.36875,
2010-02-09, 03:40:04,VALID,916.485,VALID,0,VALID,90.0935,VALID,0,VALID,21.3217,VALID,139,VALID,0.951172,
2010-02-09, 03:41:04,VALID,916.462,VALID,0,VALID,89.8191,VALID,0,VALID,21.3217,VALID,126,VALID,1.50859,
2010-02-09, 03:42:04,VALID,916.442,VALID,0,VALID,89.7276,VALID,0,VALID,21.3803,VALID,134,VALID,1.31445,
2010-02-09, 03:43:04,VALID,916.434,VALID,0,VALID,89.6971,VALID,0,VALID,21.4209,VALID,126,VALID,1.31797,
2010-02-09, 03:44:04,VALID,916.433,VALID,0,VALID,89.659,VALID,0,VALID,21.4193,VALID,125,VALID,1.34805,
2010-02-09, 03:45:04,VALID,916.401,VALID,0,VALID,89.659,VALID,0,VALID,21.4388,VALID,125,VALID,1.26016,